Year,Month,Day,Hour,Minute,Value (Times are PST for temperature in C)
2016,05,21,00,00,12.10
2016,05,21,00,01,12.10
2016,05,21,00,02,12.10
2016,05,21,00,03,12.10
2016,05,21,00,04,12.20
2016,05,21,00,05,12.20
2016,05,21,00,06,12.20
2016,05,21,00,07,12.20
2016,05,21,00,08,12.20
2016,05,21,00,09,12.20
2016,05,21,00,10,12.20
2016,05,21,00,11,12.20
2016,05,21,00,12,12.10
2016,05,21,00,13,12.10
2016,05,21,00,14,12.10
2016,05,21,00,15,12.00
2016,05,21,00,16,12.00
2016,05,21,00,17,11.90
2016,05,21,00,18,11.90
2016,05,21,00,19,11.90
2016,05,21,00,20,11.90
2016,05,21,00,21,11.90
2016,05,21,00,22,11.90
2016,05,21,00,23,11.90
2016,05,21,00,24,11.90
2016,05,21,00,25,11.90
2016,05,21,00,26,11.90
2016,05,21,00,27,11.90
2016,05,21,00,28,11.90
2016,05,21,00,29,11.90
2016,05,21,00,30,11.90
2016,05,21,00,31,11.90
2016,05,21,00,32,11.90
2016,05,21,00,33,11.90
2016,05,21,00,34,11.90
2016,05,21,00,35,11.90
2016,05,21,00,36,11.90
2016,05,21,00,37,11.90
2016,05,21,00,38,11.90
2016,05,21,00,39,11.90
2016,05,21,00,40,11.80
2016,05,21,00,41,11.80
2016,05,21,00,42,11.80
2016,05,21,00,43,11.80
2016,05,21,00,44,11.80
2016,05,21,00,45,11.80
2016,05,21,00,46,11.80
2016,05,21,00,47,11.90
2016,05,21,00,48,11.90
2016,05,21,00,49,11.90
2016,05,21,00,50,11.90
2016,05,21,00,51,11.90
2016,05,21,00,52,12.00
2016,05,21,00,53,12.00
2016,05,21,00,54,12.10
2016,05,21,00,55,12.10
2016,05,21,00,56,12.20
2016,05,21,00,57,12.20
2016,05,21,00,58,12.30
2016,05,21,00,59,12.30
2016,05,21,01,00,12.40
2016,05,21,01,01,12.50
2016,05,21,01,02,12.60
2016,05,21,01,03,12.60
2016,05,21,01,04,12.60
2016,05,21,01,05,12.70
2016,05,21,01,06,12.70
2016,05,21,01,07,12.70
2016,05,21,01,08,12.80
2016,05,21,01,09,12.80
2016,05,21,01,10,12.80
2016,05,21,01,11,12.80
2016,05,21,01,12,12.90
2016,05,21,01,13,12.90
2016,05,21,01,14,13.00
2016,05,21,01,15,13.10
2016,05,21,01,16,13.10
2016,05,21,01,17,13.10
2016,05,21,01,18,13.10
2016,05,21,01,19,13.20
2016,05,21,01,20,13.20
2016,05,21,01,21,13.20
2016,05,21,01,22,13.20
2016,05,21,01,23,13.20
2016,05,21,01,24,13.20
2016,05,21,01,25,13.20
2016,05,21,01,26,13.20
2016,05,21,01,27,13.20
2016,05,21,01,28,13.20
2016,05,21,01,29,13.20
2016,05,21,01,30,13.20
2016,05,21,01,31,13.20
2016,05,21,01,32,13.20
2016,05,21,01,33,13.20
2016,05,21,01,34,13.20
2016,05,21,01,35,13.20
2016,05,21,01,36,13.30
2016,05,21,01,37,13.30
2016,05,21,01,38,13.40
2016,05,21,01,39,13.40
2016,05,21,01,40,13.50
2016,05,21,01,41,13.50
2016,05,21,01,42,13.50
2016,05,21,01,43,13.60
2016,05,21,01,44,13.60
2016,05,21,01,45,13.60
2016,05,21,01,46,13.60
2016,05,21,01,47,13.60
2016,05,21,01,48,13.60
2016,05,21,01,49,13.60
2016,05,21,01,50,13.60
2016,05,21,01,51,13.60
2016,05,21,01,52,13.60
2016,05,21,01,53,13.60
2016,05,21,01,54,13.60
2016,05,21,01,55,13.60
2016,05,21,01,56,13.60
2016,05,21,01,57,13.60
2016,05,21,01,58,13.60
2016,05,21,01,59,13.60
2016,05,21,02,00,13.60
2016,05,21,02,01,13.60
2016,05,21,02,02,13.60
2016,05,21,02,03,13.60
2016,05,21,02,04,13.60
2016,05,21,02,05,13.60
2016,05,21,02,06,13.60
2016,05,21,02,07,13.60
2016,05,21,02,08,13.50
2016,05,21,02,09,13.50
2016,05,21,02,10,13.50
2016,05,21,02,11,13.50
2016,05,21,02,12,13.40
2016,05,21,02,13,13.40
2016,05,21,02,14,13.40
2016,05,21,02,15,13.40
2016,05,21,02,16,13.40
2016,05,21,02,17,13.40
2016,05,21,02,18,13.40
2016,05,21,02,19,13.40
2016,05,21,02,20,13.40
2016,05,21,02,21,13.40
2016,05,21,02,22,13.40
2016,05,21,02,23,13.40
2016,05,21,02,24,13.40
2016,05,21,02,25,13.40
2016,05,21,02,26,13.40
2016,05,21,02,27,13.40
2016,05,21,02,28,13.40
2016,05,21,02,29,13.40
2016,05,21,02,30,13.40
2016,05,21,02,31,13.40
2016,05,21,02,32,13.40
2016,05,21,02,33,13.40
2016,05,21,02,34,13.40
2016,05,21,02,35,13.40
2016,05,21,02,36,13.40
2016,05,21,02,37,13.30
2016,05,21,02,38,13.30
2016,05,21,02,39,13.30
2016,05,21,02,40,13.30
2016,05,21,02,41,13.30
2016,05,21,02,42,13.30
2016,05,21,02,43,13.30
2016,05,21,02,44,13.30
2016,05,21,02,45,13.30
2016,05,21,02,46,13.20
2016,05,21,02,47,13.20
2016,05,21,02,48,13.20
2016,05,21,02,49,13.20
2016,05,21,02,50,13.20
2016,05,21,02,51,13.20
2016,05,21,02,52,13.20
2016,05,21,02,53,13.20
2016,05,21,02,54,13.10
2016,05,21,02,55,13.10
2016,05,21,02,56,13.10
2016,05,21,02,57,13.10
2016,05,21,02,58,13.10
2016,05,21,02,59,13.10
2016,05,21,03,00,13.10
2016,05,21,03,01,13.00
2016,05,21,03,02,13.00
2016,05,21,03,03,13.00
2016,05,21,03,05,13.00
2016,05,21,03,06,13.00
2016,05,21,03,07,13.00
2016,05,21,03,08,12.90
2016,05,21,03,09,12.90
2016,05,21,03,10,12.90
2016,05,21,03,11,12.90
2016,05,21,03,12,12.90
2016,05,21,03,13,12.90
2016,05,21,03,14,12.90
2016,05,21,03,15,12.90
2016,05,21,03,16,12.90
2016,05,21,03,17,12.90
2016,05,21,03,18,12.90
2016,05,21,03,19,12.90
2016,05,21,03,20,12.90
2016,05,21,03,21,12.90
2016,05,21,03,22,12.90
2016,05,21,03,23,12.90
2016,05,21,03,24,12.90
2016,05,21,03,25,12.90
2016,05,21,03,26,12.90
2016,05,21,03,27,12.90
2016,05,21,03,28,12.90
2016,05,21,03,29,12.90
2016,05,21,03,30,12.90
2016,05,21,03,31,12.90
2016,05,21,03,32,12.90
2016,05,21,03,33,12.90
2016,05,21,03,34,12.90
2016,05,21,03,35,12.90
2016,05,21,03,36,12.90
2016,05,21,03,37,12.90
2016,05,21,03,38,12.90
2016,05,21,03,39,12.90
2016,05,21,03,40,12.90
2016,05,21,03,41,12.90
2016,05,21,03,42,12.80
2016,05,21,03,43,12.80
2016,05,21,03,44,12.80
2016,05,21,03,45,12.80
2016,05,21,03,46,12.80
2016,05,21,03,47,12.80
2016,05,21,03,48,12.80
2016,05,21,03,49,12.80
2016,05,21,03,50,12.80
2016,05,21,03,51,12.80
2016,05,21,03,52,12.80
2016,05,21,03,53,12.80
2016,05,21,03,54,12.80
2016,05,21,03,55,12.80
2016,05,21,03,56,12.80
2016,05,21,03,57,12.80
2016,05,21,03,58,12.80
2016,05,21,03,59,12.80
2016,05,21,04,00,12.80
2016,05,21,04,01,12.80
2016,05,21,04,02,12.70
2016,05,21,04,03,12.70
2016,05,21,04,04,12.70
2016,05,21,04,05,12.70
2016,05,21,04,06,12.70
2016,05,21,04,07,12.70
2016,05,21,04,08,12.70
2016,05,21,04,09,12.70
2016,05,21,04,10,12.60
2016,05,21,04,11,12.60
2016,05,21,04,12,12.60
2016,05,21,04,13,12.60
2016,05,21,04,14,12.50
2016,05,21,04,15,12.50
2016,05,21,04,16,12.50
2016,05,21,04,17,12.50
2016,05,21,04,18,12.40
2016,05,21,04,19,12.40
2016,05,21,04,20,12.40
2016,05,21,04,21,12.40
2016,05,21,04,22,12.30
2016,05,21,04,23,12.30
2016,05,21,04,24,12.30
2016,05,21,04,25,12.30
2016,05,21,04,26,12.30
2016,05,21,04,27,12.30
2016,05,21,04,28,12.20
2016,05,21,04,29,12.20
2016,05,21,04,30,12.20
2016,05,21,04,31,12.20
2016,05,21,04,32,12.20
2016,05,21,04,33,12.20
2016,05,21,04,34,12.20
2016,05,21,04,35,12.20
2016,05,21,04,36,12.20
2016,05,21,04,37,12.20
2016,05,21,04,38,12.20
2016,05,21,04,39,12.20
2016,05,21,04,40,12.20
2016,05,21,04,41,12.20
2016,05,21,04,42,12.20
2016,05,21,04,43,12.20
2016,05,21,04,44,12.20
2016,05,21,04,45,12.20
2016,05,21,04,46,12.20
2016,05,21,04,47,12.20
2016,05,21,04,48,12.20
2016,05,21,04,49,12.30
2016,05,21,04,50,12.30
2016,05,21,04,51,12.30
2016,05,21,04,52,12.30
2016,05,21,04,53,12.30
2016,05,21,04,54,12.30
2016,05,21,04,55,12.30
2016,05,21,04,56,12.30
2016,05,21,04,57,12.20
2016,05,21,04,58,12.20
2016,05,21,04,59,12.10
2016,05,21,05,00,12.10
2016,05,21,05,01,12.00
2016,05,21,05,02,12.00
2016,05,21,05,03,11.90
2016,05,21,05,04,11.80
2016,05,21,05,05,11.80
2016,05,21,05,06,11.70
2016,05,21,05,07,11.70
2016,05,21,05,08,11.60
2016,05,21,05,09,11.60
2016,05,21,05,10,11.50
2016,05,21,05,11,11.50
2016,05,21,05,12,11.50
2016,05,21,05,13,11.40
2016,05,21,05,14,11.40
2016,05,21,05,15,11.40
2016,05,21,05,16,11.30
2016,05,21,05,17,11.30
2016,05,21,05,18,11.30
2016,05,21,05,19,11.30
2016,05,21,05,20,11.30
2016,05,21,05,21,11.30
2016,05,21,05,22,11.30
2016,05,21,05,23,11.30
2016,05,21,05,24,11.30
2016,05,21,05,25,11.30
2016,05,21,05,26,11.30
2016,05,21,05,27,11.30
2016,05,21,05,28,11.20
2016,05,21,05,29,11.20
2016,05,21,05,30,11.20
2016,05,21,05,31,11.20
2016,05,21,05,32,11.20
2016,05,21,05,33,11.30
2016,05,21,05,34,11.30
2016,05,21,05,35,11.30
2016,05,21,05,36,11.30
2016,05,21,05,37,11.20
2016,05,21,05,38,11.20
2016,05,21,05,39,11.20
2016,05,21,05,40,11.20
2016,05,21,05,41,11.20
2016,05,21,05,42,11.20
2016,05,21,05,43,11.20
2016,05,21,05,44,11.20
2016,05,21,05,45,11.20
2016,05,21,05,46,11.20
2016,05,21,05,47,11.10
2016,05,21,05,48,11.10
2016,05,21,05,49,11.10
2016,05,21,05,50,11.10
2016,05,21,05,51,11.10
2016,05,21,05,52,11.10
2016,05,21,05,53,11.10
2016,05,21,05,54,11.10
2016,05,21,05,55,11.10
2016,05,21,05,56,11.10
2016,05,21,05,57,11.10
2016,05,21,05,58,11.20
2016,05,21,05,59,11.20
2016,05,21,06,00,11.20
2016,05,21,06,01,11.20
2016,05,21,06,02,11.20
2016,05,21,06,03,11.20
2016,05,21,06,04,11.20
2016,05,21,06,05,11.20
2016,05,21,06,06,11.20
2016,05,21,06,07,11.20
2016,05,21,06,08,11.20
2016,05,21,06,09,11.20
2016,05,21,06,10,11.30
2016,05,21,06,11,11.30
2016,05,21,06,12,11.30
2016,05,21,06,13,11.30
2016,05,21,06,14,11.40
2016,05,21,06,15,11.40
2016,05,21,06,16,11.40
2016,05,21,06,17,11.40
2016,05,21,06,18,11.40
2016,05,21,06,19,11.40
2016,05,21,06,20,11.40
2016,05,21,06,21,11.50
2016,05,21,06,22,11.50
2016,05,21,06,23,11.50
2016,05,21,06,24,11.50
2016,05,21,06,25,11.60
2016,05,21,06,26,11.60
2016,05,21,06,27,11.60
2016,05,21,06,28,11.60
2016,05,21,06,29,11.60
2016,05,21,06,30,11.60
2016,05,21,06,31,11.60
2016,05,21,06,32,11.70
2016,05,21,06,33,11.70
2016,05,21,06,34,11.70
2016,05,21,06,35,11.70
2016,05,21,06,36,11.70
2016,05,21,06,37,11.80
2016,05,21,06,38,11.80
2016,05,21,06,39,11.80
2016,05,21,06,40,11.80
2016,05,21,06,41,11.90
2016,05,21,06,42,11.90
2016,05,21,06,43,11.90
2016,05,21,06,44,12.00
2016,05,21,06,45,12.00
2016,05,21,06,46,12.00
2016,05,21,06,47,12.10
2016,05,21,06,48,12.10
2016,05,21,06,49,12.10
2016,05,21,06,50,12.20
2016,05,21,06,51,12.20
2016,05,21,06,52,12.20
2016,05,21,06,53,12.30
2016,05,21,06,54,12.30
2016,05,21,06,55,12.30
2016,05,21,06,56,12.40
2016,05,21,06,57,12.40
2016,05,21,06,58,12.40
2016,05,21,06,59,12.50
2016,05,21,07,00,12.50
2016,05,21,07,01,12.60
2016,05,21,07,02,12.60
2016,05,21,07,03,12.70
2016,05,21,07,04,12.70
2016,05,21,07,05,12.70
2016,05,21,07,06,12.70
2016,05,21,07,07,12.80
2016,05,21,07,08,12.80
2016,05,21,07,09,12.80
2016,05,21,07,10,12.80
2016,05,21,07,11,12.90
2016,05,21,07,12,12.90
2016,05,21,07,13,12.90
2016,05,21,07,14,13.00
2016,05,21,07,15,13.00
2016,05,21,07,16,13.10
2016,05,21,07,17,13.10
2016,05,21,07,18,13.20
2016,05,21,07,19,13.20
2016,05,21,07,20,13.30
2016,05,21,07,21,13.30
2016,05,21,07,22,13.40
2016,05,21,07,23,13.40
2016,05,21,07,24,13.50
2016,05,21,07,25,13.50
2016,05,21,07,26,13.60
2016,05,21,07,27,13.70
2016,05,21,07,28,13.70
2016,05,21,07,29,13.70
2016,05,21,07,30,13.80
2016,05,21,07,31,13.80
2016,05,21,07,32,13.90
2016,05,21,07,33,13.90
2016,05,21,07,34,13.90
2016,05,21,07,35,13.90
2016,05,21,07,36,13.90
2016,05,21,07,37,13.90
2016,05,21,07,38,13.90
2016,05,21,07,39,13.90
2016,05,21,07,40,13.80
2016,05,21,07,41,13.80
2016,05,21,07,42,13.80
2016,05,21,07,43,13.80
2016,05,21,07,44,13.80
2016,05,21,07,45,13.80
2016,05,21,07,46,13.80
2016,05,21,07,47,13.80
2016,05,21,07,48,13.80
2016,05,21,07,49,13.80
2016,05,21,07,50,13.80
2016,05,21,07,51,13.70
2016,05,21,07,52,13.70
2016,05,21,07,53,13.70
2016,05,21,07,54,13.70
2016,05,21,07,55,13.70
2016,05,21,07,56,13.70
2016,05,21,07,57,13.70
2016,05,21,07,58,13.70
2016,05,21,07,59,13.70
2016,05,21,08,00,13.70
2016,05,21,08,01,13.70
2016,05,21,08,02,13.80
2016,05,21,08,03,13.80
2016,05,21,08,04,13.80
2016,05,21,08,05,13.80
2016,05,21,08,06,13.80
2016,05,21,08,07,13.80
2016,05,21,08,08,13.90
2016,05,21,08,09,13.90
2016,05,21,08,10,13.90
2016,05,21,08,11,13.90
2016,05,21,08,12,14.00
2016,05,21,08,13,14.00
2016,05,21,08,14,13.90
2016,05,21,08,15,13.90
2016,05,21,08,16,13.90
2016,05,21,08,17,13.90
2016,05,21,08,18,13.90
2016,05,21,08,19,13.90
2016,05,21,08,20,14.00
2016,05,21,08,21,14.00
2016,05,21,08,22,14.00
2016,05,21,08,23,14.10
2016,05,21,08,24,14.10
2016,05,21,08,25,14.10
2016,05,21,08,26,14.20
2016,05,21,08,27,14.20
2016,05,21,08,28,14.30
2016,05,21,08,29,14.30
2016,05,21,08,30,14.30
2016,05,21,08,31,14.30
2016,05,21,08,32,14.30
2016,05,21,08,33,14.40
2016,05,21,08,34,14.40
2016,05,21,08,35,14.50
2016,05,21,08,36,14.60
2016,05,21,08,37,14.60
2016,05,21,08,38,14.70
2016,05,21,08,39,14.70
2016,05,21,08,40,14.80
2016,05,21,08,41,14.80
2016,05,21,08,42,14.80
2016,05,21,08,43,14.90
2016,05,21,08,44,15.00
2016,05,21,08,45,15.10
2016,05,21,08,46,15.20
2016,05,21,08,47,15.30
2016,05,21,08,48,15.30
2016,05,21,08,49,15.40
2016,05,21,08,50,15.40
2016,05,21,08,51,15.40
2016,05,21,08,52,15.50
2016,05,21,08,53,15.50
2016,05,21,08,54,15.60
2016,05,21,08,55,15.60
2016,05,21,08,56,15.70
2016,05,21,08,57,15.80
2016,05,21,08,58,15.90
2016,05,21,08,59,16.00
2016,05,21,09,00,16.00
2016,05,21,09,01,16.10
2016,05,21,09,02,16.10
2016,05,21,09,03,16.10
2016,05,21,09,04,16.20
2016,05,21,09,05,16.20
2016,05,21,09,06,16.20
2016,05,21,09,07,16.30
2016,05,21,09,08,16.30
2016,05,21,09,09,16.40
2016,05,21,09,10,16.40
2016,05,21,09,11,16.40
2016,05,21,09,12,16.40
2016,05,21,09,13,16.40
2016,05,21,09,14,16.40
2016,05,21,09,15,16.40
2016,05,21,09,16,16.30
2016,05,21,09,17,16.20
2016,05,21,09,18,16.20
2016,05,21,09,19,16.10
2016,05,21,09,20,16.10
2016,05,21,09,21,16.00
2016,05,21,09,22,15.90
2016,05,21,09,23,15.90
2016,05,21,09,24,15.90
2016,05,21,09,25,15.90
2016,05,21,09,26,15.90
2016,05,21,09,27,15.90
2016,05,21,09,28,15.90
2016,05,21,09,29,15.90
2016,05,21,09,30,15.90
2016,05,21,09,31,15.90
2016,05,21,09,32,15.90
2016,05,21,09,33,16.00
2016,05,21,09,34,16.00
2016,05,21,09,35,16.10
2016,05,21,09,36,16.10
2016,05,21,09,37,16.10
2016,05,21,09,38,16.10
2016,05,21,09,39,16.10
2016,05,21,09,40,16.00
2016,05,21,09,41,16.00
2016,05,21,09,42,16.00
2016,05,21,09,43,16.00
2016,05,21,09,44,16.10
2016,05,21,09,45,16.10
2016,05,21,09,46,16.20
2016,05,21,09,47,16.30
2016,05,21,09,48,16.40
2016,05,21,09,49,16.40
2016,05,21,09,50,16.50
2016,05,21,09,51,16.50
2016,05,21,09,52,16.50
2016,05,21,09,53,16.50
2016,05,21,09,54,16.60
2016,05,21,09,55,16.60
2016,05,21,09,56,16.50
2016,05,21,09,57,16.40
2016,05,21,09,58,16.40
2016,05,21,09,59,16.40
2016,05,21,10,00,16.30
2016,05,21,10,01,16.30
2016,05,21,10,02,16.20
2016,05,21,10,03,16.20
2016,05,21,10,04,16.20
2016,05,21,10,05,16.20
2016,05,21,10,06,16.20
2016,05,21,10,07,16.10
2016,05,21,10,08,16.10
2016,05,21,10,09,16.10
2016,05,21,10,10,16.10
2016,05,21,10,11,16.10
2016,05,21,10,12,16.20
2016,05,21,10,13,16.20
2016,05,21,10,14,16.30
2016,05,21,10,15,16.30
2016,05,21,10,16,16.30
2016,05,21,10,17,16.30
2016,05,21,10,18,16.30
2016,05,21,10,19,16.30
2016,05,21,10,20,16.20
2016,05,21,10,21,16.20
2016,05,21,10,22,16.20
2016,05,21,10,23,16.10
2016,05,21,10,24,16.20
2016,05,21,10,25,16.20
2016,05,21,10,26,16.20
2016,05,21,10,27,16.20
2016,05,21,10,28,16.20
2016,05,21,10,29,16.20
2016,05,21,10,30,16.30
2016,05,21,10,31,16.40
2016,05,21,10,32,16.40
2016,05,21,10,33,16.50
2016,05,21,10,34,16.60
2016,05,21,10,35,16.70
2016,05,21,10,36,16.80
2016,05,21,10,37,16.80
2016,05,21,10,38,16.80
2016,05,21,10,39,16.80
2016,05,21,10,40,16.80
2016,05,21,10,41,16.80
2016,05,21,10,42,16.80
2016,05,21,10,43,16.80
2016,05,21,10,44,16.80
2016,05,21,10,45,16.90
2016,05,21,10,46,16.90
2016,05,21,10,47,16.90
2016,05,21,10,48,17.00
2016,05,21,10,49,17.10
2016,05,21,10,50,17.10
2016,05,21,10,51,17.20
2016,05,21,10,52,17.20
2016,05,21,10,53,17.30
2016,05,21,10,54,17.30
2016,05,21,10,55,17.40
2016,05,21,10,56,17.40
2016,05,21,10,57,17.50
2016,05,21,10,58,17.60
2016,05,21,10,59,17.60
2016,05,21,11,00,17.70
2016,05,21,11,01,17.70
2016,05,21,11,02,17.80
2016,05,21,11,03,17.80
2016,05,21,11,04,17.90
2016,05,21,11,05,18.00
2016,05,21,11,06,18.00
2016,05,21,11,07,18.00
2016,05,21,11,08,18.10
2016,05,21,11,09,18.10
2016,05,21,11,10,18.10
2016,05,21,11,11,18.10
2016,05,21,11,12,18.00
2016,05,21,11,13,18.00
2016,05,21,11,14,18.00
2016,05,21,11,15,18.00
2016,05,21,11,16,18.00
2016,05,21,11,17,18.00
2016,05,21,11,18,18.10
2016,05,21,11,19,18.10
2016,05,21,11,20,18.10
2016,05,21,11,21,18.10
2016,05,21,11,22,18.10
2016,05,21,11,23,18.20
2016,05,21,11,24,18.20
2016,05,21,11,25,18.20
2016,05,21,11,26,18.30
2016,05,21,11,27,18.30
2016,05,21,11,28,18.40
2016,05,21,11,29,18.40
2016,05,21,11,30,18.40
2016,05,21,11,31,18.50
2016,05,21,11,32,18.60
2016,05,21,11,33,18.60
2016,05,21,11,34,18.70
2016,05,21,11,35,18.80
2016,05,21,11,36,18.90
2016,05,21,11,37,18.90
2016,05,21,11,38,18.90
2016,05,21,11,39,19.00
2016,05,21,11,40,19.00
2016,05,21,11,41,19.10
2016,05,21,11,42,19.10
2016,05,21,11,43,19.20
2016,05,21,11,44,19.20
2016,05,21,11,45,19.20
2016,05,21,11,46,19.20
2016,05,21,11,47,19.20
2016,05,21,11,48,19.20
2016,05,21,11,49,19.20
2016,05,21,11,50,19.20
2016,05,21,11,51,19.20
2016,05,21,11,52,19.10
2016,05,21,11,53,19.10
2016,05,21,11,54,19.10
2016,05,21,11,55,19.10
2016,05,21,11,56,19.10
2016,05,21,11,57,19.10
2016,05,21,11,58,19.10
2016,05,21,11,59,19.10
2016,05,21,12,00,19.10
2016,05,21,12,01,19.10
2016,05,21,12,02,19.10
2016,05,21,12,03,19.10
2016,05,21,12,04,19.10
2016,05,21,12,05,19.20
2016,05,21,12,06,19.20
2016,05,21,12,07,19.20
2016,05,21,12,08,19.30
2016,05,21,12,09,19.30
2016,05,21,12,10,19.30
2016,05,21,12,11,19.40
2016,05,21,12,12,19.40
2016,05,21,12,13,19.40
2016,05,21,12,14,19.40
2016,05,21,12,15,19.40
2016,05,21,12,16,19.40
2016,05,21,12,17,19.40
2016,05,21,12,18,19.40
2016,05,21,12,19,19.40
2016,05,21,12,20,19.50
2016,05,21,12,21,19.50
2016,05,21,12,22,19.50
2016,05,21,12,23,19.50
2016,05,21,12,24,19.50
2016,05,21,12,25,19.50
2016,05,21,12,26,19.50
2016,05,21,12,27,19.50
2016,05,21,12,28,19.50
2016,05,21,12,29,19.60
2016,05,21,12,30,19.60
2016,05,21,12,31,19.60
2016,05,21,12,32,19.70
2016,05,21,12,33,19.70
2016,05,21,12,34,19.70
2016,05,21,12,35,19.70
2016,05,21,12,36,19.70
2016,05,21,12,37,19.70
2016,05,21,12,38,19.70
2016,05,21,12,39,19.70
2016,05,21,12,40,19.70
2016,05,21,12,41,19.60
2016,05,21,12,42,19.60
2016,05,21,12,43,19.60
2016,05,21,12,44,19.60
2016,05,21,12,45,19.50
2016,05,21,12,46,19.40
2016,05,21,12,47,19.40
2016,05,21,12,48,19.50
2016,05,21,12,49,19.50
2016,05,21,12,50,19.60
2016,05,21,12,51,19.60
2016,05,21,12,52,19.70
2016,05,21,12,53,19.70
2016,05,21,12,54,19.70
2016,05,21,12,55,19.70
2016,05,21,12,56,19.60
2016,05,21,12,57,19.60
2016,05,21,12,58,19.50
2016,05,21,12,59,19.50
2016,05,21,13,00,19.50
2016,05,21,13,01,19.50
2016,05,21,13,02,19.50
2016,05,21,13,03,19.50
2016,05,21,13,04,19.50
2016,05,21,13,05,19.50
2016,05,21,13,06,19.40
2016,05,21,13,07,19.30
2016,05,21,13,08,19.10
2016,05,21,13,09,19.00
2016,05,21,13,10,18.90
2016,05,21,13,11,18.80
2016,05,21,13,12,18.70
2016,05,21,13,13,18.50
2016,05,21,13,14,18.40
2016,05,21,13,15,18.20
2016,05,21,13,16,18.20
2016,05,21,13,17,18.20
2016,05,21,13,18,18.10
2016,05,21,13,19,18.20
2016,05,21,13,20,18.20
2016,05,21,13,21,18.30
2016,05,21,13,22,18.30
2016,05,21,13,23,18.30
2016,05,21,13,24,18.30
2016,05,21,13,25,18.30
2016,05,21,13,26,18.40
2016,05,21,13,27,18.40
2016,05,21,13,28,18.50
2016,05,21,13,29,18.50
2016,05,21,13,30,18.50
2016,05,21,13,31,18.50
2016,05,21,13,32,18.50
2016,05,21,13,33,18.60
2016,05,21,13,34,18.60
2016,05,21,13,35,18.70
2016,05,21,13,36,18.80
2016,05,21,13,37,18.80
2016,05,21,13,38,18.80
2016,05,21,13,39,18.90
2016,05,21,13,40,18.90
2016,05,21,13,41,18.90
2016,05,21,13,42,18.90
2016,05,21,13,43,18.90
2016,05,21,13,44,18.90
2016,05,21,13,45,18.90
2016,05,21,13,46,18.90
2016,05,21,13,47,18.90
2016,05,21,13,48,18.90
2016,05,21,13,49,18.90
2016,05,21,13,50,18.90
2016,05,21,13,51,18.90
2016,05,21,13,52,18.90
2016,05,21,13,53,18.90
2016,05,21,13,54,18.90
2016,05,21,13,55,18.90
2016,05,21,13,56,18.90
2016,05,21,13,57,18.90
2016,05,21,13,58,18.90
2016,05,21,13,59,19.00
2016,05,21,14,00,19.00
2016,05,21,14,01,19.00
2016,05,21,14,02,19.10
2016,05,21,14,03,19.10
2016,05,21,14,04,19.10
2016,05,21,14,05,19.10
2016,05,21,14,06,19.10
2016,05,21,14,07,19.20
2016,05,21,14,08,19.20
2016,05,21,14,09,19.30
2016,05,21,14,10,19.30
2016,05,21,14,11,19.40
2016,05,21,14,12,19.40
2016,05,21,14,13,19.50
2016,05,21,14,14,19.60
2016,05,21,14,15,19.60
2016,05,21,14,16,19.70
2016,05,21,14,17,19.80
2016,05,21,14,18,19.80
2016,05,21,14,19,19.80
2016,05,21,14,20,19.90
2016,05,21,14,21,20.00
2016,05,21,14,22,20.00
2016,05,21,14,23,20.00
2016,05,21,14,24,19.90
2016,05,21,14,25,19.90
2016,05,21,14,26,19.90
2016,05,21,14,27,19.80
2016,05,21,14,28,19.80
2016,05,21,14,29,19.80
2016,05,21,14,30,19.80
2016,05,21,14,31,19.70
2016,05,21,14,32,19.60
2016,05,21,14,33,19.60
2016,05,21,14,34,19.60
2016,05,21,14,35,19.60
2016,05,21,14,36,19.60
2016,05,21,14,37,19.60
2016,05,21,14,38,19.60
2016,05,21,14,39,19.60
2016,05,21,14,40,19.60
2016,05,21,14,41,19.60
2016,05,21,14,42,19.60
2016,05,21,14,43,19.60
2016,05,21,14,44,19.70
2016,05,21,14,45,19.70
2016,05,21,14,46,19.70
2016,05,21,14,47,19.70
2016,05,21,14,48,19.70
2016,05,21,14,49,19.70
2016,05,21,14,50,19.60
2016,05,21,14,51,19.60
2016,05,21,14,52,19.60
2016,05,21,14,53,19.50
2016,05,21,14,54,19.50
2016,05,21,14,55,19.40
2016,05,21,14,56,19.40
2016,05,21,14,57,19.40
2016,05,21,14,58,19.30
2016,05,21,14,59,19.20
2016,05,21,15,00,19.20
2016,05,21,15,01,19.10
2016,05,21,15,02,19.10
2016,05,21,15,03,19.10
2016,05,21,15,04,19.10
2016,05,21,15,05,19.10
2016,05,21,15,06,19.00
2016,05,21,15,07,19.00
2016,05,21,15,08,19.00
2016,05,21,15,09,18.90
2016,05,21,15,10,18.90
2016,05,21,15,11,18.90
2016,05,21,15,12,18.80
2016,05,21,15,13,18.80
2016,05,21,15,14,18.90
2016,05,21,15,15,18.90
2016,05,21,15,16,18.90
2016,05,21,15,17,18.90
2016,05,21,15,18,18.90
2016,05,21,15,19,18.90
2016,05,21,15,20,18.90
2016,05,21,15,21,18.80
2016,05,21,15,22,18.80
2016,05,21,15,23,18.80
2016,05,21,15,24,18.80
2016,05,21,15,25,18.80
2016,05,21,15,26,18.90
2016,05,21,15,27,18.90
2016,05,21,15,28,18.90
2016,05,21,15,29,18.90
2016,05,21,15,30,18.90
2016,05,21,15,31,18.80
2016,05,21,15,32,18.80
2016,05,21,15,33,18.80
2016,05,21,15,34,18.80
2016,05,21,15,35,18.80
2016,05,21,15,36,18.70
2016,05,21,15,37,18.60
2016,05,21,15,38,18.60
2016,05,21,15,39,18.50
2016,05,21,15,40,18.50
2016,05,21,15,41,18.40
2016,05,21,15,42,18.40
2016,05,21,15,43,18.50
2016,05,21,15,44,18.50
2016,05,21,15,45,18.60
2016,05,21,15,46,18.60
2016,05,21,15,47,18.60
2016,05,21,15,48,18.70
2016,05,21,15,49,18.70
2016,05,21,15,50,18.80
2016,05,21,15,51,18.80
2016,05,21,15,52,18.90
2016,05,21,15,53,18.90
2016,05,21,15,54,19.00
2016,05,21,15,55,18.90
2016,05,21,15,56,18.90
2016,05,21,15,57,18.90
2016,05,21,15,58,18.90
2016,05,21,15,59,18.90
2016,05,21,16,00,18.80
2016,05,21,16,01,18.80
2016,05,21,16,02,18.70
2016,05,21,16,03,18.60
2016,05,21,16,04,18.50
2016,05,21,16,05,18.50
2016,05,21,16,06,18.50
2016,05,21,16,07,18.50
2016,05,21,16,08,18.50
2016,05,21,16,09,18.40
2016,05,21,16,10,18.30
2016,05,21,16,11,18.20
2016,05,21,16,12,18.10
2016,05,21,16,13,18.00
2016,05,21,16,14,17.90
2016,05,21,16,15,17.90
2016,05,21,16,16,17.90
2016,05,21,16,17,17.90
2016,05,21,16,18,17.90
2016,05,21,16,19,17.90
2016,05,21,16,20,17.90
2016,05,21,16,21,17.80
2016,05,21,16,22,17.80
2016,05,21,16,23,17.70
2016,05,21,16,24,17.70
2016,05,21,16,25,17.70
2016,05,21,16,26,17.60
2016,05,21,16,27,17.60
2016,05,21,16,28,17.60
2016,05,21,16,29,17.60
2016,05,21,16,30,17.60
2016,05,21,16,31,17.60
2016,05,21,16,32,17.70
2016,05,21,16,33,17.70
2016,05,21,16,34,17.70
2016,05,21,16,35,17.70
2016,05,21,16,36,17.70
2016,05,21,16,37,17.70
2016,05,21,16,38,17.70
2016,05,21,16,39,17.70
2016,05,21,16,40,17.70
2016,05,21,16,41,17.80
2016,05,21,16,42,17.80
2016,05,21,16,43,17.90
2016,05,21,16,44,18.00
2016,05,21,16,45,18.10
2016,05,21,16,46,18.30
2016,05,21,16,47,18.40
2016,05,21,16,48,18.50
2016,05,21,16,49,18.60
2016,05,21,16,50,18.70
2016,05,21,16,51,18.80
2016,05,21,16,52,18.80
2016,05,21,16,53,18.90
2016,05,21,16,54,18.90
2016,05,21,16,55,19.00
2016,05,21,16,56,19.10
2016,05,21,16,57,19.10
2016,05,21,16,58,19.10
2016,05,21,16,59,19.20
2016,05,21,17,00,19.20
2016,05,21,17,01,19.20
2016,05,21,17,02,19.20
2016,05,21,17,03,19.10
2016,05,21,17,04,19.10
2016,05,21,17,05,19.00
2016,05,21,17,06,18.90
2016,05,21,17,07,18.80
2016,05,21,17,08,18.80
2016,05,21,17,09,18.70
2016,05,21,17,10,18.70
2016,05,21,17,11,18.70
2016,05,21,17,12,18.60
2016,05,21,17,13,18.60
2016,05,21,17,14,18.50
2016,05,21,17,15,18.40
2016,05,21,17,16,18.20
2016,05,21,17,17,18.10
2016,05,21,17,18,18.00
2016,05,21,17,19,17.90
2016,05,21,17,20,17.80